Location: Sydney
(46.1500°N, 60.1670°W)
Time: 00:31:10
(UTC-04:00)

Iridium 90 - Visible Passes

Search period start: 22 February 2017 00:00
Search period end: 04 March 2017 00:00
Orbit: 747 x 750 km, 86.4° (Epoch: 21 February)

Date Brightness Start Highest point End Pass type
(mag) Time Alt. Az. Time Alt. Az. Time Alt. Az.
22 Feb 7.5 03:20:31 10° NNE 03:22:39 23° NNE 03:22:39 23° NNE visible
22 Feb 7.1 05:00:54 10° NNW 05:02:29 18° NW 05:02:29 18° NW visible
23 Feb 8.2 02:39:19 10° NNE 02:40:21 14° NE 02:40:21 14° NE visible
23 Feb 7.1 04:18:23 10° N 04:20:11 22° NNW 04:20:11 22° NNW visible
24 Feb 7.4 03:36:17 10° N 03:37:57 21° N 03:37:57 21° N visible
24 Feb 7.6 05:17:46 10° NW 05:17:48 10° NW 05:17:48 10° NW visible
25 Feb 8.0 02:54:36 10° NNE 02:55:47 16° NNE 02:55:47 16° NNE visible
25 Feb 7.4 04:34:40 10° NNW 04:35:37 15° NNW 04:35:37 15° NNW visible
26 Feb 7.5 03:52:15 10° N 03:53:28 18° N 03:53:28 18° N visible
27 Feb 7.8 03:10:16 10° N 03:11:22 16° N 03:11:22 16° N visible
28 Feb 8.3 02:28:43 10° NNE 02:29:16 12° NNE 02:29:16 12° NNE visible
28 Feb 7.7 04:08:28 10° NNW 04:09:07 13° NNW 04:09:07 13° NNW visible
01 Mar 7.8 03:26:11 10° N 03:27:03 15° N 03:27:03 15° N visible
02 Mar 8.1 02:44:17 10° N 02:45:00 14° NNE 02:45:00 14° NNE visible
03 Mar 8.5 02:02:54 10° NNE 02:02:58 10° NNE 02:02:58 10° NNE visible
03 Mar 7.8 03:42:18 10° NNW 03:42:49 13° NNW 03:42:49 13° NNW visible
